| time (UTC) | temp C | wind direction | speed KPH | gust KPH | rain 1hr cm | rain 24hr cm | rain mn cm | humidity % | barometer mb |
| 20260507234544 | 17 | 273 | 3.2 | 12.9 | 0.00 | 0.69 | 0.18 | 61 | 1011.7 |
| 20260507233043 | 17 | 238 | 3.2 | 8.0 | 0.00 | 0.69 | 0.18 | 61 | 1011.7 |
| 20260507231543 | 17 | 265 | 3.2 | 6.4 | 0.00 | 0.69 | 0.18 | 66 | 1011.7 |
| 20260507230041 | 17 | 279 | 4.8 | 12.9 | 0.00 | 0.69 | 0.18 | 62 | 1011.7 |
| 20260507224541 | 17 | 73 | 0.0 | 6.4 | 0.00 | 0.91 | 0.18 | 64 | 1011.8 |
| 20260507223040 | 18 | 343 | 1.6 | 6.4 | 0.00 | 0.91 | 0.18 | 63 | 1011.9 |
| 20260507221539 | 17 | 91 | 1.6 | 11.3 | 0.00 | 0.91 | 0.18 | 60 | 1011.9 |
| 20260507220040 | 18 | 316 | 1.6 | 9.7 | 0.00 | 0.91 | 0.18 | 62 | 1011.8 |
| 20260507214538 | 17 | 331 | 0.0 | 3.2 | 0.00 | 1.12 | 0.18 | 62 | 1011.7 |
| 20260507213040 | 17 | 65 | 0.0 | 6.4 | 0.00 | 1.12 | 0.18 | 64 | 1011.5 |
| 20260507211537 | 17 | 29 | 4.8 | 9.7 | 0.00 | 1.12 | 0.18 | 63 | 1011.5 |
| 20260507210037 | 18 | 340 | 6.4 | 11.3 | 0.00 | 1.12 | 0.18 | 63 | 1011.2 |
| 20260507204536 | 17 | 218 | 1.6 | 6.4 | 0.00 | 1.30 | 0.18 | 64 | 1011.3 |
| 20260507203036 | 17 | 7 | 6.4 | 11.3 | 0.00 | 1.30 | 0.18 | 66 | 1011.4 |
| 20260507201539 | 17 | 279 | 1.6 | 9.7 | 0.00 | 1.30 | 0.18 | 68 | 1011.5 |
| 20260507200037 | 17 | 355 | 1.6 | 6.4 | 0.00 | 1.30 | 0.18 | 68 | 1011.5 |
| 20260507194537 | 16 | 302 | 0.0 | 3.2 | 0.00 | 1.45 | 0.18 | 70 | 1011.7 |
| 20260507193031 | 16 | 346 | 3.2 | 9.7 | 0.00 | 1.45 | 0.18 | 70 | 1012.0 |
| 20260507191533 | 16 | 270 | 3.2 | 8.0 | 0.00 | 1.45 | 0.18 | 72 | 1012.0 |
| 20260507190030 | 16 | 259 | 3.2 | 8.0 | 0.00 | 1.45 | 0.18 | 74 | 1012.1 |
| 20260507184527 | 16 | 293 | 0.0 | 4.8 | 0.00 | 1.50 | 0.18 | 74 | 1011.7 |
| 20260507183035 | 16 | 28 | 0.0 | 4.8 | 0.00 | 1.50 | 0.18 | 70 | 1011.9 |
| 20260507181526 | 16 | 114 | 0.0 | 8.0 | 0.00 | 1.50 | 0.18 | 73 | 1012.2 |
| 20260507180030 | 15 | 60 | 4.8 | 8.0 | 0.00 | 1.50 | 0.18 | 70 | 1012.4 |
| 20260507174531 | 16 | 331 | 4.8 | 14.5 | 0.00 | 1.50 | 0.18 | 72 | 1012.5 |
| 20260507173023 | 16 | 56 | 6.4 | 11.3 | 0.00 | 1.50 | 0.18 | 78 | 1012.6 |
| 20260507171528 | 15 | 28 | 3.2 | 11.3 | 0.00 | 1.50 | 0.18 | 77 | 1012.6 |
| 20260507170022 | 14 | 24 | 4.8 | 9.7 | 0.00 | 1.50 | 0.18 | 77 | 1012.6 |
| 20260507164520 | 14 | 31 | 6.4 | 14.5 | 0.00 | 1.50 | 0.18 | 79 | 1012.7 |
| 20260507163019 | 14 | 326 | 4.8 | 11.3 | 0.00 | 1.50 | 0.18 | 80 | 1012.7 |
| 20260507161518 | 13 | 322 | 3.2 | 11.3 | 0.00 | 1.50 | 0.18 | 85 | 1012.7 |
| 20260507160027 | 12 | 345 | 3.2 | 11.3 | 0.00 | 1.50 | 0.18 | 85 | 1012.5 |
| 20260507154517 | 13 | 360 | 6.4 | 17.7 | 0.00 | 1.55 | 0.18 | 85 | 1012.5 |
| 20260507153014 | 12 | 6 | 4.8 | 14.5 | 0.00 | 1.55 | 0.18 | 90 | 1012.1 |
| 20260507151513 | 12 | 32 | 6.4 | 16.1 | 0.00 | 1.55 | 0.18 | 92 | 1012.4 |
| 20260507150014 | 12 | 344 | 6.4 | 14.5 | 0.00 | 1.55 | 0.18 | 90 | 1012.5 |
| 20260507144511 | 12 | 332 | 6.4 | 14.5 | 0.00 | 1.88 | 0.18 | 91 | 1012.3 |
| 20260507143010 | 12 | 19 | 4.8 | 11.3 | 0.00 | 1.88 | 0.18 | 91 | 1012.1 |
| 20260507141506 | 12 | 313 | 1.6 | 14.5 | 0.00 | 1.88 | 0.18 | 91 | 1011.8 |
| 20260507140006 | 12 | 58 | 3.2 | 11.3 | 0.00 | 1.88 | 0.18 | 91 | 1011.7 |
| 20260507134504 | 12 | 349 | 1.6 | 8.0 | 0.00 | 2.26 | 0.18 | 91 | 1011.7 |
| 20260507133002 | 12 | 320 | 1.6 | 8.0 | 0.00 | 2.26 | 0.18 | 92 | 1011.3 |
| 20260507131503 | 12 | 33 | 3.2 | 9.7 | 0.00 | 2.26 | 0.18 | 93 | 1011.2 |
| 20260507130000 | 12 | 358 | 3.2 | 9.7 | 0.03 | 2.26 | 0.18 | 94 | 1011.3 |
| 20260507124559 | 12 | 344 | 3.2 | 8.0 | 0.03 | 2.77 | 0.18 | 94 | 1011.4 |
| 20260507123113 | 12 | 25 | 1.6 | 8.0 | 0.03 | 2.77 | 0.18 | 95 | 1011.3 |
| 20260507121558 | 12 | 29 | 3.2 | 6.4 | 0.03 | 2.77 | 0.18 | 95 | 1011.1 |
| 20260507120057 | 12 | 35 | 3.2 | 6.4 | 0.00 | 2.74 | 0.15 | 95 | 1011.1 |
| 20260507114559 | 12 | 42 | 1.6 | 4.8 | 0.00 | 2.77 | 0.15 | 95 | 1011.3 |
| 20260507113053 | 12 | 323 | 3.2 | 8.0 | 0.00 | 2.77 | 0.15 | 95 | 1010.8 |
| 20260507111553 | 12 | 24 | 3.2 | 8.0 | 0.03 | 2.77 | 0.15 | 95 | 1010.3 |
| 20260507110054 | 12 | 39 | 0.0 | 8.0 | 0.03 | 2.77 | 0.15 | 94 | 1010.5 |
| 20260507104557 | 12 | 43 | 1.6 | 4.8 | 0.03 | 2.77 | 0.15 | 94 | 1010.5 |
| 20260507103050 | 12 | 6 | 1.6 | 4.8 | 0.03 | 2.77 | 0.15 | 94 | 1010.4 |
| 20260507101549 | 12 | 42 | 3.2 | 4.8 | 0.03 | 2.74 | 0.13 | 94 | 1010.5 |
| 20260507100055 | 12 | 344 | 0.0 | 3.2 | 0.03 | 2.74 | 0.13 | 94 | 1010.6 |
| 20260507094548 | 12 | 8 | 0.0 | 6.4 | 0.03 | 2.74 | 0.13 | 94 | 1010.2 |
| 20260507093045 | 12 | 37 | 1.6 | 4.8 | 0.03 | 2.74 | 0.13 | 94 | 1009.9 |
| 20260507091545 | 12 | 48 | 0.0 | 6.4 | 0.00 | 2.72 | 0.10 | 94 | 1010.1 |
| 20260507090055 | 12 | 48 | 1.6 | 6.4 | 0.05 | 2.72 | 0.10 | 94 | 1010.3 |
| 20260507084550 | 12 | 38 | 0.0 | 8.0 | 0.08 | 2.72 | 0.10 | 95 | 1010.5 |
| 20260507083042 | 12 | 31 | 1.6 | 6.4 | 0.08 | 2.72 | 0.10 | 95 | 1010.1 |
| 20260507081550 | 12 | 42 | 3.2 | 11.3 | 0.10 | 2.72 | 0.10 | 95 | 1009.8 |
| 20260507080038 | 13 | 348 | 1.6 | 4.8 | 0.05 | 2.67 | 0.05 | 96 | 1010.1 |
| 20260507074537 | 13 | 67 | 3.2 | 8.0 | 0.03 | 2.64 | 0.03 | 96 | 1009.8 |
| 20260507073035 | 13 | 27 | 1.6 | 11.3 | 0.03 | 2.64 | 0.03 | 96 | 1009.8 |
| 20260507071536 | 13 | 34 | 1.6 | 9.7 | 0.00 | 2.62 | 0.00 | 96 | 1009.6 |
| 20260507070036 | 13 | 242 | 0.0 | 4.8 | 0.00 | 2.62 | 0.00 | 96 | 1010.0 |
| 20260507064552 | 14 | 265 | 0.0 | 4.8 | 0.00 | 2.62 | 0.00 | 96 | 1010.2 |
| 20260507063034 | 14 | 281 | 1.6 | 4.8 | 0.00 | 2.62 | 0.00 | 95 | 1010.4 |
| 20260507061530 | 14 | 260 | 0.0 | 8.0 | 0.00 | 2.62 | 0.00 | 95 | 1009.8 |
| 20260507060033 | 14 | 262 | 3.2 | 12.9 | 0.00 | 2.62 | 0.00 | 95 | 1009.7 |
| 20260507054526 | 14 | 288 | 4.8 | 14.5 | 0.00 | 2.62 | 0.00 | 95 | 1010.2 |
| 20260507053025 | 14 | 287 | 8.0 | 19.3 | 0.00 | 2.62 | 0.00 | 95 | 1010.3 |
| 20260507051523 | 15 | 265 | 8.0 | 19.3 | 0.00 | 2.62 | 0.00 | 95 | 1010.3 |
| 20260507050034 | 15 | 268 | 4.8 | 9.7 | 0.00 | 2.62 | 0.00 | 96 | 1010.2 |
| 20260507044517 | 15 | 261 | 3.2 | 6.4 | 0.00 | 2.62 | 0.00 | 96 | 1010.5 |
| 20260507043016 | 15 | 285 | 1.6 | 3.2 | 0.00 | 2.62 | 0.00 | 96 | 1010.1 |
| 20260507041523 | 15 | 285 | 0.0 | 1.6 | 0.00 | 2.62 | 0.00 | 96 | 1009.9 |
| 20260507040013 | 15 | 285 | 0.0 | 3.2 | 0.00 | 2.62 | 0.00 | 96 | 1010.4 |
| 20260507034512 | 15 | 293 | 0.0 | 4.8 | 0.03 | 2.62 | 2.62 | 96 | 1010.1 |
| 20260507033011 | 15 | 293 | 0.0 | 4.8 | 0.03 | 2.62 | 2.62 | 96 | 1010.3 |
| 20260507031510 | 16 | 281 | 0.0 | 4.8 | 0.03 | 2.62 | 2.62 | 96 | 1010.7 |
| 20260507030018 | 16 | 262 | 1.6 | 6.4 | 0.05 | 2.62 | 2.62 | 96 | 1010.6 |
| 20260507024514 | 16 | 208 | 0.0 | 1.6 | 0.03 | 2.59 | 2.59 | 96 | 1010.5 |
| 20260507023008 | 16 | 257 | 0.0 | 3.2 | 0.08 | 2.59 | 2.59 | 96 | 1011.1 |
| 20260507021508 | 16 | 238 | 0.0 | 3.2 | 0.08 | 2.59 | 2.59 | 96 | 1011.0 |
| 20260507020007 | 16 | 237 | 0.0 | 3.2 | 0.05 | 2.57 | 2.57 | 96 | 1010.8 |
| 20260507014511 | 16 | 237 | 1.6 | 6.4 | 0.10 | 2.57 | 2.57 | 95 | 1010.5 |
| 20260507013010 | 16 | 258 | 3.2 | 11.3 | 0.13 | 2.51 | 2.51 | 95 | 1010.7 |
| 20260507011504 | 17 | 248 | 3.2 | 9.7 | 0.20 | 2.51 | 2.51 | 96 | 1010.3 |
| 20260507010007 | 17 | 268 | 1.6 | 4.8 | 0.30 | 2.51 | 2.51 | 96 | 1010.1 |
| 20260507004501 | 17 | 152 | 4.8 | 14.5 | 0.33 | 2.46 | 2.46 | 96 | 1009.1 |
| 20260507003001 | 17 | 224 | 0.0 | 8.0 | 0.28 | 2.39 | 2.39 | 96 | 1011.0 |
| 20260507001501 | 17 | 93 | 1.6 | 9.7 | 0.20 | 2.31 | 2.31 | 96 | 1010.6 |
| 20260507000002 | 17 | 149 | 0.0 | 3.2 | 0.10 | 2.21 | 2.21 | 96 | 1009.9 |